This is the latest recevied weather packets stored in our database for station/object W0AKO. If no packets are shown the sender has not sent any weather packets the latest 10 day(s).
| Time | Temp. | Humidity | Pressure | Rain* | Wind** | Luminosity | Snow |
|---|---|---|---|---|---|---|---|
| 1778009045 | 22.22° C | 10% | 1012.2 hPa | 0 mm | - | 708 W/m² | - |
| 1778008743 | 21.67° C | 10% | 1012.1 hPa | 0 mm | - | 553 W/m² | - |
| 1778008441 | 21.11° C | 10% | 1012 hPa | 0 mm | - | 744 W/m² | - |
| 1778008138 | 21.11° C | 10% | 1012.3 hPa | 0 mm | - | 740 W/m² | - |
| 1778007833 | 22.22° C | 10% | 1012 hPa | 0 mm | - | 773 W/m² | - |
| 1778007529 | 22.78° C | 10% | 1011.9 hPa | 0 mm | - | 775 W/m² | - |
| 1778007225 | 22.22° C | 10% | 1012 hPa | 0 mm | - | 770 W/m² | - |
| 1778006922 | 21.11° C | 10% | 1012.1 hPa | 0 mm | - | 786 W/m² | - |
| 1778006619 | 20.56° C | 10% | 1012.3 hPa | 0 mm | - | 783 W/m² | - |
| 1778006316 | 20° C | 10% | 1012.5 hPa | 0 mm | - | 773 W/m² | - |
| 1778006012 | 20° C | 10% | 1012.3 hPa | 0 mm | - | 781 W/m² | - |
| 1778005709 | 20.56° C | 10% | 1012.3 hPa | 0 mm | - | 141 W/m² | - |
| 1778005406 | 20° C | 10% | 1012.5 hPa | 0 mm | - | 245 W/m² | - |
| 1778005103 | 20° C | 10% | 1012.6 hPa | 0 mm | - | 829 W/m² | - |
| 1778004800 | 20.56° C | 10% | 1012.5 hPa | 0 mm | - | 849 W/m² | - |
| 1778004497 | 20° C | 10% | 1012.3 hPa | 0 mm | - | 861 W/m² | - |
| 1778004193 | 19.44° C | 10% | 1012.3 hPa | 0 mm | - | 860 W/m² | - |
| 1778003890 | 19.44° C | 10% | 1012.6 hPa | 0 mm | - | 866 W/m² | - |
| 1778003586 | 20° C | 10% | 1012.6 hPa | 0 mm | - | 872 W/m² | - |
| 1778003283 | 19.44° C | 10% | 1012.7 hPa | 0 mm | - | 876 W/m² | - |
| 1778002980 | 21.11° C | 10% | 1012.9 hPa | 0 mm | - | 870 W/m² | - |
| 1778002676 | 20.56° C | 10% | 1012.7 hPa | 0 mm | - | 776 W/m² | - |
| 1778002372 | 20.56° C | 10% | 1012.9 hPa | 0 mm | - | 749 W/m² | - |
| 1778002069 | 18.89° C | 10% | 1012.7 hPa | 0 mm | - | 717 W/m² | - |
| 1778001767 | 18.89° C | 10% | 1013 hPa | 0 mm | - | 755 W/m² | - |
* Rain latest hour (hover to see other rain measurements)
** Current wind speed in m/s (hover to see current wind gust speed)